Regional Weather Roundup
Issued by NWS Midland/Odessa, TX

Skip options and go directly to product.
Home | Oldest Version | Previous Version | Current Version | All | Graphics & Text | Save Text | Print | Product List | Glossary On

Skip product version selection by date and time.   
960
ASUS44 KMAF 290710
RWRMAF
MIDLAND AREA WEATHER ROUNDUP
NATIONAL WEATHER SERVICE MIDLAND TX
200 AM CDT SAT AUG 29 2015

...IN SOUTHWEST TEXAS AND SOUTHEAST NEW MEXICO...

CITY           SKY/WX    TMP DP  RH WIND       PRES   REMARKS
ALPINE         CLOUDY    72  53  52 CALM      30.22S
ANDREWS        CLOUDY    73  62  70 E3        30.14R
ARTESIA        CLOUDY    68  68 100 N10       30.21S
BIG SPRING     CLOUDY    78  56  48 NW5       30.09S
CARLSBAD       CLOUDY    76  61  59 E6        30.14R
DRYDEN           N/A     79  48  33 VRB5      30.02R
FORT STOCKTON  CLOUDY    79  52  38 SE9       30.07S
GUAD PASS      CLOUDY    68  55  63 N13       30.27R
HOBBS          LGT RAIN  66  66 100 CALM      30.19R
MARFA          CLOUDY    72  54  53 N8        30.20S
MIDLAND AIRPK  CLOUDY    79  59  50 NW9       30.13R
MIDLAND INTL   CLOUDY    80  58  46 N15       30.11R
ODESSA         CLOUDY    79  57  46 N12       30.12R
PECOS          CLOUDY    78  58  50 N9        30.07R
PRESIDIO       NOT AVBL
SEMINOLE       DRIZZLE   70  62  76 NW9       30.15S
SNYDER         CLOUDY    79  56  45 NW6       30.05S
WINK           CLOUDY    73  64  73 N10       30.08R
$$
...OTHER STATIONS IN TEXAS...

CITY           SKY/WX    TMP DP  RH WIND       PRES   REMARKS
ABILENE        MOCLDY    79  55  43 S13       30.01R
AMARILLO       CLOUDY    67  60  78 SW5       30.14S
AUSTIN         CLEAR     73  66  78 SW6       30.01S
BROWNSVILLE    CLEAR     72  66  81 CALM      29.99S
CORPUS CHRISTI PTCLDY    74  64  71 SE5       30.00S
DALLAS FTW     CLOUDY    83  62  49 S10       29.97F
DEL RIO        PTCLDY    80  57  45 E10       29.99R
EL PASO        MOCLDY    74  64  71 SW8       30.11F THUNDER
HOUSTON INT    PTCLDY    74  69  85 SW3       30.02S
LUBBOCK        CLOUDY    74  64  71 S5        30.10R
SAN ANGELO     MOCLDY    78  54  43 SW6       30.02R
SAN ANTONIO    PTCLDY    77  63  61 S9        30.04S
WACO           CLEAR     79  65  62 S10       29.99S
WICHITA FALLS  NOT AVBL
$$
...OTHER LOCATIONS IN NEW MEXICO...

CITY           SKY/WX    TMP DP  RH WIND       PRES   REMARKS
ALAMAGORDO     PTCLDY    72  57  60 NE8       30.18R
ALBUQUERQUE    MOCLDY    72  49  44 SE13      30.28R
CANNON AFB     CLOUDY    68  62  83 SE6       30.19S
CLOVIS         CLOUDY    68  61  77 S9        30.19F
HOLLOMAN AFB   MOCLDY    73  59  61 NE5       30.16R
ROSWELL        LGT RAIN  68  64  87 NE8       30.21R
RUIDOSO        CLOUDY    57  55  94 MISG      30.41R
SANTA FE       PTCLDY    64  49  57 S15       30.33R
TRUTH OR CONSE CLOUDY    71  55  56 S8        30.18S
TUCUMCARI      MOCLDY    70  59  68 NW10      30.17S
$$

USA.gov is the U.S. government's official web portal to all federal, state and local government web resources and services.